Location: Palmerston North
(40.3500°S, 175.6170°E)
Time: 21:58:13
(UTC+12:00)

Meteor 2-10 Rocket - Pass Details

Date: 24 January 2019
Orbit: 735 x 884 km, 81.2° (Epoch: 21 April)

Event Time Altitude Azimuth Distance (km) Brightness Sun altitude
Rises 21:33:02 0° 342° (NNW) 3,175 6.5 -9.0°
Reaches altitude 10° 21:35:21 10° 338° (NNW) 2,272 5.8 -9.3°
Maximum altitude 21:40:22 59° 258° (WSW) 893 4.2 -10.1°
Drops below altitude 10° 21:45:40 10° 178° (S) 2,382 6.6 -10.9°
Sets 21:48:09 0° 174° (S) 3,342 7.3 -11.3°
